This demonstration page uses our WeatherBlox Daily Observations layout. Learn more.

Left ArrowRight Arrow

Hourly Observations for July 31, 2021

Temp ( °F °C ) Dew Point ( °F °C ) Humidity (%) Winds ( mph kmh ) Pressure ( in mb ) Visibility ( mi km ) Precip ( " mm )
12:07 am 00:07 Cloudy with Mist and Fog 76 24.4 72 22.2 88 88 NE 7 11 29.97 1015 5 8 0.00 0.00
12:36 am 00:36 Mostly Cloudy 76 24.4 71 21.7 85 85 E 10 17 29.95 1014 7 11 0.00 0.00
12:43 am 00:43 Mostly Cloudy 75 23.9 71 21.7 88 88 ENE 8 13 29.95 1014 8 13 0.00 0.00
12:52 am 00:52 Partly Cloudy 75 24 72 22 89 89 E 10 17 29.94 1014 8 13 0.00 0.00
12:54 am 00:54 Mostly Clear 75 23.9 70 21.1 84 84 E 12 19 29.94 1014 8 13 0.00 0.00
1:22 am 01:22 Mostly Cloudy 74 23.3 70 21.1 88 88 NE 10 17 29.97 1015 7 11 0.00 0.00
1:54 am 01:54 Cloudy with Mist and Fog 73 22.8 70 21.1 90 90 NE 15 24 29.98 1015 6 10 0.00 0.00
2:23 am 02:23 Cloudy with Nearby Thunderstorms 73 22.8 69 20.6 87 87 NNW 26 43 30.06 1018 7 11 0.00 0.00
2:38 am 02:38 Cloudy with Nearby Thunderstorms 71 21.7 67 19.4 87 87 N 25 41 30.08 1019 3 4 0.01 0.25
2:46 am 02:46 Cloudy with Strong Thunderstorms 70 21.1 67 19.4 90 90 NNE 22 35 30.05 1018 2 3 0.07 1.78
2:54 am 02:54 Cloudy with Thunderstorms 70 21.1 67 19.4 90 90 NE 15 24 30.03 1017 5 8 0.09 2.29
3:01 am 03:01 Cloudy with Thunderstorms 70 21.1 68 20 93 93 NE 16 26 30.01 1016 10 16 0.00 0.00
3:12 am 03:12 Cloudy with Nearby Thunderstorms 70 21.1 68 20 93 93 ENE 8 13 30.01 1016 10 16 0.00 0.00
3:21 am 03:21 Cloudy 70 21.1 68 20 93 93 VRB 5 7 30.02 1017 10 16 0.00 0.00
3:54 am 03:54 Mostly Cloudy with Nearby Thunderstorms 71 21.7 68 20 90 90 NW 3 6 30.01 1016 10 16 0.00 0.00
4:34 am 04:34 Cloudy with Thunderstorms 71 21.7 68 20 90 90 NNE 6 9 29.98 1015 8 13 0.00 0.00
4:54 am 04:54 Cloudy with Thunderstorms 71 21.7 68 20 90 90 NNE 10 17 29.99 1016 6 10 0.04 1.02
5:08 am 05:08 Cloudy with Thunderstorms 70 21.1 67 19.4 90 90 NE 14 22 29.97 1015 10 16 0.02 0.51
5:15 am 05:15 Cloudy with Thunderstorms 70 21.1 67 19.4 90 90 NE 14 22 29.97 1015 10 16 0.02 0.51
5:23 am 05:23 Cloudy with Nearby Thunderstorms 70 21.1 67 19.4 90 90 NNE 13 20 29.98 1015 10 16 0.02 0.51
5:31 am 05:31 Cloudy with Thunderstorms 70 21.1 67 19.4 90 90 N 9 15 29.99 1016 7 11 0.02 0.51
5:46 am 05:46 Mostly Cloudy with Nearby Thunderstorms 70 21.1 67 19.4 90 90 N 12 19 30.00 1016 9 14 0.04 1.02
5:54 am 05:54 Cloudy with Light Rain 69 20.6 67 19.4 93 93 N 15 24 30.01 1016 10 16 0.05 1.27
5:57 am 05:57 Cloudy with Nearby Thunderstorms 69 20.6 67 19.4 93 93 N 13 20 30.01 1016 9 14 0.00 0.00
6:09 am 06:09 Cloudy with Strong Thunderstorms 69 20.6 67 19.4 93 93 N 21 33 30.01 1016 3 4 0.09 2.29
6:16 am 06:16 Cloudy with Thunderstorms 69 20.6 67 19.4 93 93 N 14 22 30.04 1017 5 8 0.14 3.56
6:41 am 06:41 Cloudy with Nearby Thunderstorms 69 20.6 66 18.9 90 90 N 8 13 30.04 1017 4 6 0.26 6.60
6:50 am 06:50 Cloudy with Thunderstorms 70 21 66 19 88 88 N 6 9 30.05 1018 5 8 0.29 7.37
6:54 am 06:54 Cloudy with Thunderstorms 69 20.6 66 18.9 90 90 NNE 7 11 30.04 1017 4 6 0.29 7.37
7:05 am 07:05 Cloudy with Nearby Thunderstorms 68 20 66 18.9 93 93 NNE 9 15 30.04 1017 3 5 0.06 1.52
7:29 am 07:29 Mostly Cloudy with Rain 69 20.6 66 18.9 90 90 Calm 30.05 1018 3 5 0.10 2.54
7:32 am 07:32 Mostly Cloudy with Rain 69 20.6 66 18.9 90 90 N 3 6 30.05 1018 3 4 0.11 2.79
7:41 am 07:41 Cloudy with Rain 68 20 66 18.9 93 93 NNE 8 13 30.06 1018 4 6 0.14 3.56
7:54 am 07:54 Cloudy with Rain 68 20 66 18.9 93 93 NNE 10 17 30.05 1018 3 5 0.17 4.32
8:02 am 08:02 Cloudy with Rain 68 20 66 18.9 93 93 N 10 17 30.06 1018 2 3 0.03 0.76
8:22 am 08:22 Mostly Cloudy with Light Rain 68 20 66 18.9 93 93 N 8 13 30.07 1018 3 5 0.05 1.27
8:40 am 08:40 Cloudy with Light Rain 68 20 65 18.3 90 90 NE 10 17 30.03 1017 3 4 0.05 1.27
8:54 am 08:54 Cloudy with Light Rain 68 20 65 18.3 90 90 NNE 10 17 30.05 1018 2 3 0.07 1.78
9:05 am 09:05 Cloudy with Light Rain 68 20 65 18.3 90 90 NNE 7 11 30.06 1018 3 4 0.00 0.00
9:25 am 09:25 Cloudy with Light Rain 69 20.6 65 18.3 87 87 N 7 11 30.06 1018 3 5 0.00 0.00
9:39 am 09:39 Cloudy with Mist and Fog 69 20.6 65 18.3 87 87 NNE 8 13 30.06 1018 3 4 0.00 0.00
9:50 am 09:50 Cloudy with Light Rain 70 21 66 19 88 88 NNE 8 13 30.06 1018 3 5 0.00 0.00
9:54 am 09:54 Cloudy with Mist and Fog 69 20.6 66 18.9 90 90 NNE 12 19 30.08 1019 3 5 0.00 0.00
10:04 am 10:04 Mostly Cloudy with Mist and Fog 70 21.1 66 18.9 87 87 NNE 12 19 30.07 1018 3 5 0.00 0.00
10:15 am 10:15 Mostly Cloudy with Haze 70 21.1 65 18.3 84 84 NNE 9 15 30.07 1018 3 5 0.00 0.00
10:54 am 10:54 Cloudy with Haze 72 22.2 66 18.9 82 82 N 9 15 30.11 1020 3 5 0.00 0.00
11:13 am 11:13 Mostly Cloudy with Haze 74 23.3 65 18.3 74 74 NNE 13 20 30.09 1019 3 4 0.00 0.00
11:17 am 11:17 Mostly Cloudy with Haze 74 23.3 64 17.8 71 71 NNE 12 19 30.10 1019 3 4 0.00 0.00
11:34 am 11:34 Mostly Cloudy with Haze 74 23.3 65 18.3 74 74 N 10 17 30.10 1019 3 4 0.00 0.00
11:38 am 11:38 Hazy 75 23.9 65 18.3 71 71 NNE 10 17 30.10 1019 3 5 0.00 0.00
11:46 am 11:46 Mostly Cloudy with Haze 77 25 65 18.3 66 66 NE 10 17 30.10 1019 3 5 0.00 0.00
11:54 am 11:54 Hazy 77 25 65 18.3 66 66 NE 12 19 30.12 1020 3 5 0.00 0.00
12:01 pm 12:01 Mostly Cloudy with Haze 77 25 65 18.3 66 66 N 9 15 30.10 1019 3 5 0.00 0.00
12:54 pm 12:54 Mostly Cloudy with Haze 76 24.4 64 17.8 67 67 N 12 19 30.11 1020 3 5 0.00 0.00
1:21 pm 13:21 Hazy 77 25 65 18.3 66 66 N 7 11 30.09 1019 3 4 0.00 0.00
1:36 pm 13:36 Mostly Cloudy with Haze 77 25 65 18.3 66 66 N 6 9 30.08 1018 3 4 0.00 0.00
1:50 pm 13:50 Mostly Cloudy with Haze 79 26 64 18 61 61 NNE 10 17 30.08 1019 3 5 0.00 0.00
1:54 pm 13:54 Mostly Cloudy with Haze 77 25 65 18.3 66 66 NNE 8 13 30.11 1020 3 5 0.00 0.00
2:54 pm 14:54 Mostly Cloudy with Haze 80 26.7 65 18.3 60 60 NNE 13 20 30.10 1019 5 8 0.00 0.00
3:08 pm 15:08 Hazy 80 26.7 65 18.3 60 60 NNE 13 20 30.08 1019 5 8 0.00 0.00
3:54 pm 15:54 Hazy 80 26.7 64 17.8 58 58 NNE 12 19 30.10 1019 3 5 0.00 0.00
4:54 pm 16:54 Hazy 81 27.2 64 17.8 57 57 N 12 19 30.09 1019 3 5 0.00 0.00
5:54 pm 17:54 Hazy 82 27.8 64 17.8 55 55 N 10 17 30.08 1019 4 6 0.00 0.00
6:54 pm 18:54 Hazy 81 27.2 66 18.9 61 61 N 7 11 30.08 1019 4 6 0.00 0.00
7:54 pm 19:54 Hazy 78 25.6 68 20 71 71 NNE 3 6 30.09 1019 3 5 0.00 0.00
8:54 pm 20:54 Hazy 74 23.3 67 19.4 79 79 N 3 6 30.09 1019 3 5 0.00 0.00
9:54 pm 21:54 Hazy 75 23.9 68 20 79 79 WNW 3 6 30.09 1019 4 6 0.00 0.00
10:54 pm 22:54 Hazy 72 22.2 67 19.4 84 84 Calm 30.09 1019 4 6 0.00 0.00
11:54 pm 23:54 Clear with Mist and Fog 71 21.7 67 19.4 87 87 NNW 7 11 30.11 1020 4 6 0.00 0.00

Powered by AerisWeather